Location: *
(58.4167°N, 22.5000°E)
Time: 00:56:47
(UTC+00:00)

Cosmos 1726 - Pass Details

Date: 22 September 2019
Orbit: 482 x 502 km, 82.5° (Epoch: 20 October)

Event Time Altitude Azimuth Distance (km) Brightness Sun altitude
Exits shadow 20:01:44 18° 32° (NNE) 1,276 4.3 -25.1°
Drops below altitude 10° 20:02:52 10° 24° (NNE) 1,708 5.1 -25.2°
Sets 20:05:03 0° 18° (NNE) 2,592 6.2 -25.4°
